Regional Weather Roundup
Issued by NWS

Home | Current Version | Previous Version | Text Only | Print | Product List | Glossary On
Versions: 1 2 3 4 5 6 7 8 9 10 11 12 13 14 15 16 17 18 19 20 21 22 23 24 25 26 27 28 29 30 31 32 33 34 35 36 37 38 39 40 41 42 43 44 45 46 47 48 49 50
000
ASUS46 KLOX 101113
RWRCA

SOUTHERN CALIFORNIA WEATHER ROUNDUP
NATIONAL WEATHER SERVICE OXNARD CALIFORNIA
300 AM PST WED FEB 10 2016

NOTE: "FAIR" INDICATES FEW OR NO CLOUDS BELOW 12,000 FEET WITH NO
SIGNIFICANT WEATHER AND/OR OBSTRUCTIONS TO VISIBILITY.

  -  STATIONS PRECEEDED BY AN ASTERISK (*) ARE NOT NWS OR FAA
     STATIONS AND ARE NOT SUBJECT TO NWS AND FAA QUALITY CONTROL.

CAZ041-042-087-101200-
LA AND ORANGE COUNTY COASTAL AREAS


CITY           SKY/WX    TMP DP  RH WIND       PRES   REMARKS
L.A. DOWNTOWN  CLEAR     66  28  24 N3        30.11R
L.A. AIRPORT   PTCLDY    63  33  32 CALM      30.11S
LONG BEACH     CLEAR     60  38  43 CALM      30.11R

CITY           SKY/WX    TMP DP  RH WIND       PRES   REMARKS
FULLERTON      CLEAR     57  33  40 E6        30.10S
HAWTHORNE      CLEAR     59  38  45 CALM      30.11S
*LEO CARRILLO    N/A     64  24  22 NW5         N/A
*LOS ALAMITOS  FAIR      56  39  52 CALM      30.10S
*REDONDO BEACH   N/A     56  35  44 CALM      30.11S
SANTA ANA      CLEAR     56  40  55 N5        30.10F
STA MONICA APT CLEAR     62  34  35 E5        30.11R
*STA MON PIER    N/A     68  34  28 N2        30.04
*UCLA            N/A     72  21  15 N5        30.09S

$$

CAZ547-548-048-101200-
LA COUNTY VALLEYS AND INLAND EMPIRE


CITY           SKY/WX    TMP DP  RH WIND       PRES   REMARKS
BURBANK        CLEAR     62  25  24 CALM      30.13R
VAN NUYS       CLEAR     59  29  31 NW6       30.14S

CITY           SKY/WX    TMP DP  RH WIND       PRES   REMARKS
CORONA AIRPORT SUNNY     46  35  65 CALM      30.15S
*CHATSWORTH      N/A     56  31  39 CALM      30.13S
CHINO          CLEAR     50  36  58 CALM      30.15S
*CLAREMONT       N/A     56  27  33 N2          N/A
MARCH AFB      CLEAR     47  29  48 CALM      30.16F
*NORTHRIDGE      N/A     55  27  33 CALM        N/A
ONTARIO        PTCLDY    56  30  37 E5        30.14S
*PASADENA        N/A     63  32  31 CALM        N/A
RIVERSIDE      CLEAR     54  29  38 CALM      30.15S
SAN BERNARDINO NOT AVBL
*SAN GABRIEL     N/A     58  36  43 N3        30.18S
*SAN RAFAEL HI   N/A     70  15  12 W3          N/A
*SAUGUS          N/A     61  27  27 E7          N/A
*WHITEMAN AP   NOT AVBL
*WOODLAND HILL   N/A     50  30  46 SE1         N/A

$$

CAZ054-055-101200-
LA AND SAN BERNARDINO COUNTY MOUNTAINS


CITY           SKY/WX    TMP DP  RH WIND       PRES   REMARKS
*ACTON           N/A     52  22  31 NW2         N/A
*BIG BEAR AIRP SUNNY     23  19  86 CALM      30.42S
*BIG PINES       N/A     47   6  18 CALM        N/A
*CHILAO          N/A     60   9  13 NW2         N/A
SANDBERG       CLEAR    N/A N/A N/A NE10      30.32F
*WARM SPRINGS    N/A     61  45  56 NE18        N/A

$$

CAZ028-029-059-060-099-101200-
ANTELOPE VALLEY AND SURROUNDING AREAS


CITY           SKY/WX    TMP DP  RH WIND       PRES   REMARKS
LANCASTER      CLEAR     37  28  70 W3        30.28S
PALMDALE       CLEAR     39  27  62 CALM      30.27F
*POPPY PARK      N/A     46  24  41 W3          N/A

CITY           SKY/WX    TMP DP  RH WIND       PRES   REMARKS
29 PALMS       CLEAR     43  19  38 NW8       30.31R
BARSTOW/DAGGET PTCLDY    48  23  37 W10       30.26S
BISHOP         MOCLDY    36  24  62 NW9       30.34F WCI  29
CHINA LAKE     CLEAR     40  25  55 SW3       30.26F
EDWARDS AFB    CLEAR     38  27  63 SW7       30.25F WCI  33
NEEDLES        PTCLDY    58  27  30 NW8       30.19S
VICTORVILLE    CLEAR     41  21  45 CALM      30.28S

$$

CAZ039-040-101200-
VENTURA AND SANTA BARBARA COUNTY COAST


CITY           SKY/WX    TMP DP  RH WIND       PRES   REMARKS
CAMARILLO      CLEAR     51  35  54 CALM      30.12S
NWS OXNARD       N/A     61  28  28 N8        30.11S
OXNARD AIRPORT CLEAR     66  28  24 NE10      30.12S
*POINT MUGU    CLEAR     56  36  47 N6        30.13R
SBA APT/GOLETA CLEAR     48  41  76 CALM      30.11F
*SANTA BARBARA   N/A     54  40  59 CALM      30.19F
*VENTURA         N/A     67  26  21 N6        30.11S

$$

CAZ044-045-101200-
VENTURA COUNTY VALLEYS


CITY           SKY/WX    TMP DP  RH WIND       PRES   REMARKS
*SIMI VALLEY     N/A     70  29  21 NE12      30.07R
*WESTLAKE VILL   N/A     46  35  67 NE1       30.14S
*OJAI            N/A     41  35  79 CALM      30.11S
*FILLMORE        N/A     51  33  51 CALM      30.04S

$$

CAZ053-101200-
VENTURA COUNTY MOUNTAINS


CITY           SKY/WX    TMP DP  RH WIND       PRES   REMARKS
*LOCKWOOD VLY    N/A     27  16  63 MISG        N/A
*ROSE VALLEY     N/A     27  25  93 MISG        N/A

$$

CAZ034-035-036-101200-
CENTRAL COAST AND SANTA YNEZ VALLEY


CITY           SKY/WX    TMP DP  RH WIND       PRES   REMARKS
SAN LUIS OBISP CLEAR     50  43  77 CALM      30.16F
SANTA MARIA    CLEAR     50  42  74 E3        30.17F

CITY           SKY/WX    TMP DP  RH WIND       PRES   REMARKS
*CAL POLY SLO    N/A     55  45  67 S3G12       N/A
*PISMO BEACH     N/A     53  44  71 E5        30.15F
*SANTA YNEZ    FAIR      45  37  76 CALM      30.19S

$$

CAZ037-038-051-101200-
SAN LUIS OBISPO COUNTY INTERIOR AND CUYAMA VALLEY


CITY           SKY/WX    TMP DP  RH WIND       PRES   REMARKS
*CUYAMA          N/A     44  32  62 E6        30.22R
PASO ROBLES    CLEAR     43  40  89 E3        30.23F

$$

CAZ032-033-061-101200-
SOUTHERN DESERTS


CITY           SKY/WX    TMP DP  RH WIND       PRES   REMARKS
BLYTHE         CLEAR     56  24  29 SW3       30.15F
IMPERIAL       CLEAR     51  30  44 W5        30.11F
PALM SPRINGS   CLEAR     61  25  25 NW7       30.15F
THERMAL        CLEAR     50  32  50 N5        30.10F

$$

ELSEWHERE ACROSS THE WESTERN UNITED STATES AND MEXICO


CITY           SKY/WX    TMP DP  RH WIND       PRES   REMARKS
DEATH VALLEY,    N/A     59  29  31 S2          N/A
DENVER, CO     CLOUDY    38  15  39 SW14      30.16S WCI  30
GRAND CANYON,  PTCLDY    23  17  78 NE6       30.42F WCI  16
HONOLULU, HI   CLEAR     66  61  82 N3        30.07F
KAHULUI, MAUI  CLEAR     63  57  82 SE6       30.09S
LAKE TAHOE, CA CLEAR     26  22  84 CALM      30.40F
LAS VEGAS, NV  MOCLDY    50  28  42 SW3       30.24R
MAMMOTH LAKES, FAIR      28  19  69 N5        30.45S WCI  23
MEXICO CITY, M CLOUDY    45  37  76 E8        30.40S
PHOENIX, AZ    CLEAR     57  31  37 CALM      30.15S
PORTLAND, OR   MOCLDY    44  40  85 CALM      30.14F
RENO, NV       PTCLDY    37  30  75 CALM      30.37F
SALT LAKE CITY FOG       27  25  92 N8        30.46S VSB 1/2 WCI  19
SAN DIEGO, CA  CLEAR     61  35  37 N3        30.12R
SAN FRANCISCO, CLEAR     52  46  80 CALM      30.21F
SAN JOSE, CA   CLEAR     49  43  80 SE6       30.21F
SEATTLE, WA    MOCLDY    48  39  71 SE7       30.12F
TIJUANA, MEX   CLEAR     61  23  23 SE3       30.13F

$$

STATION/POSITION TIME  TEMP    WIND        PRES    VSBY  WAVE
                       AIR SEA DIR/SP/G                  HT/PER
                 (UTC) (F)     (DEG/KT/KT) (MB)    (MI)  (FT/S)
POINT ARGUELLO B NOT AVBL
WEST SANTA BARBA 1050   61 57  310/  6/  8 1019.4F         4/14
POINT CONCEPTION NOT AVBL
EAST SANTA BARBA 1000   58 58   50/  2/  4 1020.5S
SANTA MONICA BAY 1050   63 60  330/ 12/ 14 1019.6F         3/14


USA.gov is the U.S. government's official web portal to all federal, state and local government web resources and services.